User: anonymous   Login
Location: *
(34.6780°N, 135.8310°E)
Time: 06:09:18
(UTC+00:00)
Language:

Cosmos 921 Rocket - Orbit

View from above orbital plane
View from above orbital plane
View from above satellite
View from above satellite

Ground track
Ground track

The orbit data is extracted from the following two-line orbital elements,

1 10096U 77055B   19340.09812041  .00000039  00000-0  62164-5 0  9998
2 10096  75.8334 197.4956 0042083  68.9409 291.6274 14.88683980296443
Epoch (UTC): 06 December 2019 02:21:17
Eccentricity: 0.0042083
inclination: 75.8334°
perigee height: 572 km
apogee height: 631 km
right ascension of ascending node: 197.4956°
argument of perigee: 68.9409°
revolutions per day: 14.88683980
mean anomaly at epoch: 291.6274°
orbit number at epoch: 29644

The dashed part of the orbit path shows where the satellite is in the earth's shadow,  

DLR